Voltar ao catálogo

FENGYUN 1C DEB

AtivoSSO
NORAD 33633·DEBRIS·🇨🇳 China

Lançado May 10, 1999 de Taiyuan Satellite Launch Center

Loading…

Próximas Passagens (próximas 24 horas)

TLE

AtualizadoSource: Space-Track

Época: Sep 13, 2026, 02:41 UTC

1 33633U 99025DDS 26256.11237447  .00002480  00000-0  11183-2 0  9993
2 33633  99.0608   1.9918 0081350  88.1467  35.1490 14.21383299946060

Acompanhe FENGYUN 1C DEB em tempo real com AllMySat

Download on the App Store